| time (UTC) | temp F | wind direction | speed MPH | gust MPH | rain 1hr in | rain 24hr in | rain mn in | humidity % | barometer mb |
| 20260509011504 | 58 | 229 | 0.0 | 3.0 | 0.00 | 0.00 | 0.00 | 35 | 1003.2 |
| 20260509010104 | 59 | 232 | 1.0 | 4.0 | 0.00 | 0.00 | 0.00 | 33 | 1003.3 |
| 20260509010041 | 59 | 232 | 0.0 | 4.0 | 0.00 | 0.00 | 0.00 | 34 | 1010.1 |
| 20260509004537 | 59 | 0 | 0.0 | 8.0 | 0.00 | 0.00 | 0.00 | 34 | 1010.1 |
| 20260509004501 | 59 | 302 | 0.0 | 8.0 | 0.00 | 0.00 | 0.00 | 34 | 1003.3 |
| 20260509003103 | 60 | 265 | 3.0 | 14.0 | 0.00 | 0.00 | 0.00 | 32 | 1003.3 |
| 20260509003037 | 60 | 263 | 3.0 | 14.0 | 0.00 | 0.00 | 0.00 | 32 | 1010.1 |
| 20260509001600 | 61 | 220 | 6.0 | 15.0 | 0.00 | 0.00 | 0.00 | 31 | 1003.5 |
| 20260509001539 | 61 | 248 | 4.0 | 15.0 | 0.00 | 0.00 | 0.00 | 31 | 1010.1 |
| 20260509000059 | 61 | 275 | 5.0 | 14.0 | 0.00 | 0.00 | 0.00 | 32 | 1003.6 |
| 20260509000041 | 61 | 277 | 3.0 | 14.0 | 0.00 | 0.00 | 0.00 | 31 | 1010.2 |
| 20260508234559 | 62 | 249 | 7.0 | 17.0 | 0.00 | 0.00 | 0.00 | 30 | 1003.7 |
| 20260508234541 | 62 | 273 | 7.0 | 18.0 | 0.00 | 0.00 | 0.00 | 30 | 1010.4 |
| 20260508233056 | 62 | 290 | 9.0 | 16.0 | 0.00 | 0.00 | 0.00 | 31 | 1003.8 |
| 20260508233039 | 62 | 299 | 8.0 | 16.0 | 0.00 | 0.00 | 0.00 | 30 | 1010.5 |
| 20260508231555 | 61 | 313 | 10.0 | 17.0 | 0.00 | 0.00 | 0.00 | 30 | 1003.9 |
| 20260508231537 | 61 | 275 | 8.0 | 19.0 | 0.00 | 0.00 | 0.00 | 30 | 1010.6 |
| 20260508230059 | 62 | 217 | 6.0 | 16.0 | 0.00 | 0.00 | 0.00 | 30 | 1004.0 |
| 20260508230041 | 62 | 215 | 7.0 | 18.0 | 0.00 | 0.00 | 0.00 | 31 | 1010.7 |
| 20260508224604 | 62 | 228 | 7.0 | 19.0 | 0.00 | 0.00 | 0.00 | 31 | 1004.1 |
| 20260508224535 | 62 | 241 | 8.0 | 19.0 | 0.00 | 0.00 | 0.00 | 29 | 1010.8 |
| 20260508223052 | 62 | 286 | 4.0 | 16.0 | 0.00 | 0.00 | 0.00 | 32 | 1004.0 |
| 20260508223039 | 62 | 304 | 4.0 | 16.0 | 0.00 | 0.00 | 0.00 | 32 | 1010.7 |
| 20260508221559 | 62 | 224 | 6.0 | 17.0 | 0.00 | 0.00 | 0.00 | 30 | 1004.1 |
| 20260508221539 | 62 | 224 | 8.0 | 17.0 | 0.00 | 0.00 | 0.00 | 30 | 1010.7 |
| 20260508220050 | 62 | 249 | 7.0 | 17.0 | 0.00 | 0.00 | 0.00 | 29 | 1004.3 |
| 20260508220041 | 62 | 254 | 6.0 | 17.0 | 0.00 | 0.00 | 0.00 | 28 | 1010.8 |
| 20260508214550 | 63 | 235 | 6.0 | 16.0 | 0.00 | 0.00 | 0.00 | 29 | 1004.3 |
| 20260508214537 | 63 | 289 | 6.0 | 16.0 | 0.00 | 0.00 | 0.00 | 28 | 1010.8 |
| 20260508213107 | 62 | 250 | 9.0 | 16.0 | 0.00 | 0.00 | 0.00 | 28 | 1004.4 |
| 20260508213042 | 62 | 229 | 9.0 | 15.0 | 0.00 | 0.00 | 0.00 | 28 | 1010.9 |
| 20260508211549 | 62 | 205 | 8.0 | 17.0 | 0.00 | 0.00 | 0.00 | 29 | 1004.4 |
| 20260508211541 | 62 | 219 | 7.0 | 17.0 | 0.00 | 0.00 | 0.00 | 30 | 1010.9 |
| 20260508210047 | 62 | 213 | 6.0 | 13.0 | 0.00 | 0.00 | 0.00 | 32 | 1004.4 |
| 20260508210040 | 62 | 226 | 6.0 | 16.0 | 0.00 | 0.00 | 0.00 | 31 | 1011.0 |
| 20260508204548 | 62 | 214 | 5.0 | 13.0 | 0.00 | 0.00 | 0.00 | 30 | 1004.7 |
| 20260508204540 | 62 | 213 | 6.0 | 15.0 | 0.00 | 0.00 | 0.00 | 29 | 1011.2 |
| 20260508203042 | 61 | 238 | 3.0 | 18.0 | 0.00 | 0.00 | 0.00 | 33 | 1005.0 |
| 20260508203040 | 61 | 238 | 2.0 | 19.0 | 0.00 | 0.00 | 0.00 | 33 | 1011.5 |
| 20260508201542 | 62 | 219 | 5.0 | 13.0 | 0.00 | 0.00 | 0.00 | 32 | 1005.4 |
| 20260508201538 | 62 | 206 | 5.0 | 16.0 | 0.00 | 0.00 | 0.00 | 32 | 1011.9 |
| 20260508200100 | 60 | 231 | 8.0 | 16.0 | 0.00 | 0.00 | 0.00 | 30 | 1012.0 |
| 20260508200049 | 60 | 246 | 8.0 | 14.0 | 0.00 | 0.00 | 0.00 | 31 | 1005.6 |
| 20260508194542 | 60 | 252 | 7.0 | 18.0 | 0.00 | 0.00 | 0.00 | 30 | 1012.4 |
| 20260508194536 | 60 | 261 | 8.0 | 18.0 | 0.00 | 0.00 | 0.00 | 31 | 1005.8 |
| 20260508193106 | 61 | 208 | 10.0 | 17.0 | 0.00 | 0.00 | 0.00 | 30 | 1005.9 |
| 20260508193046 | 61 | 252 | 8.0 | 16.0 | 0.00 | 0.00 | 0.00 | 29 | 1012.4 |
| 20260508191539 | 61 | 207 | 7.0 | 17.0 | 0.00 | 0.00 | 0.00 | 31 | 1012.7 |
| 20260508191534 | 61 | 217 | 7.0 | 14.0 | 0.00 | 0.00 | 0.00 | 31 | 1006.3 |
| 20260508190036 | 60 | 237 | 5.0 | 18.0 | 0.00 | 0.00 | 0.00 | 34 | 1013.2 |
| 20260508184542 | 59 | 246 | 7.0 | 16.0 | 0.00 | 0.00 | 0.00 | 32 | 1013.6 |
| 20260508184527 | 59 | 246 | 6.0 | 16.0 | 0.00 | 0.00 | 0.00 | 32 | 1007.1 |
| 20260508183047 | 60 | 240 | 7.0 | 17.0 | 0.00 | 0.00 | 0.00 | 37 | 1013.6 |
| 20260508183026 | 60 | 240 | 4.0 | 16.0 | 0.00 | 0.00 | 0.00 | 31 | 1007.2 |
| 20260508181549 | 58 | 237 | 6.0 | 15.0 | 0.00 | 0.00 | 0.00 | 32 | 1013.7 |
| 20260508181526 | 58 | 237 | 6.0 | 15.0 | 0.00 | 0.00 | 0.00 | 33 | 1007.3 |
| 20260508180038 | 58 | 360 | 7.0 | 14.0 | 0.00 | 0.00 | 0.00 | 33 | 1014.0 |
| 20260508180027 | 58 | 332 | 7.0 | 14.0 | 0.00 | 0.00 | 0.00 | 33 | 1007.6 |
| 20260508174537 | 57 | 224 | 4.0 | 13.0 | 0.00 | 0.00 | 0.00 | 33 | 1014.4 |
| 20260508174528 | 57 | 223 | 4.0 | 13.0 | 0.00 | 0.00 | 0.00 | 34 | 1007.9 |
| 20260508173037 | 58 | 244 | 6.0 | 16.0 | 0.00 | 0.00 | 0.00 | 32 | 1014.5 |
| 20260508173017 | 58 | 252 | 7.0 | 15.0 | 0.00 | 0.00 | 0.00 | 32 | 1008.1 |
| 20260508171536 | 58 | 242 | 7.0 | 17.0 | 0.00 | 0.00 | 0.00 | 31 | 1014.6 |
| 20260508171518 | 58 | 220 | 8.0 | 17.0 | 0.00 | 0.00 | 0.00 | 31 | 1008.3 |
| 20260508170036 | 58 | 211 | 6.0 | 18.0 | 0.00 | 0.00 | 0.00 | 32 | 1014.9 |
| 20260508170016 | 58 | 229 | 6.0 | 18.0 | 0.00 | 0.00 | 0.00 | 32 | 1008.5 |
| 20260508164546 | 56 | 251 | 4.0 | 16.0 | 0.00 | 0.00 | 0.00 | 34 | 1015.2 |
| 20260508164512 | 56 | 288 | 3.0 | 16.0 | 0.00 | 0.00 | 0.00 | 35 | 1008.8 |
| 20260508163037 | 57 | 248 | 7.0 | 16.0 | 0.00 | 0.00 | 0.00 | 32 | 1015.2 |
| 20260508163012 | 57 | 234 | 8.0 | 16.0 | 0.00 | 0.00 | 0.00 | 33 | 1008.7 |
| 20260508161536 | 58 | 200 | 4.0 | 16.0 | 0.00 | 0.00 | 0.00 | 35 | 1015.3 |
| 20260508161516 | 58 | 219 | 6.0 | 16.0 | 0.00 | 0.00 | 0.00 | 35 | 1009.0 |
| 20260508160037 | 56 | 285 | 6.0 | 15.0 | 0.00 | 0.00 | 0.00 | 34 | 1015.4 |
| 20260508160007 | 56 | 298 | 7.0 | 15.0 | 0.00 | 0.00 | 0.00 | 34 | 1009.2 |
| 20260508154603 | 56 | 282 | 3.0 | 12.0 | 0.00 | 0.00 | 0.00 | 36 | 1015.5 |
| 20260508154504 | 56 | 260 | 3.0 | 13.0 | 0.00 | 0.00 | 0.00 | 36 | 1009.3 |
| 20260508153100 | 54 | 275 | 4.0 | 12.0 | 0.00 | 0.00 | 0.00 | 36 | 1009.5 |
| 20260508153040 | 54 | 238 | 5.0 | 13.0 | 0.00 | 0.00 | 0.00 | 35 | 1015.8 |
| 20260508151559 | 53 | 304 | 2.0 | 8.0 | 0.00 | 0.00 | 0.00 | 37 | 1009.7 |
| 20260508151540 | 53 | 304 | 2.0 | 8.0 | 0.00 | 0.00 | 0.00 | 36 | 1015.9 |
| 20260508150053 | 52 | 253 | 6.0 | 11.0 | 0.00 | 0.00 | 0.00 | 38 | 1009.9 |
| 20260508150040 | 52 | 254 | 4.0 | 11.0 | 0.00 | 0.00 | 0.00 | 37 | 1016.0 |
| 20260508144551 | 52 | 244 | 2.0 | 12.0 | 0.00 | 0.00 | 0.00 | 41 | 1010.0 |
| 20260508144542 | 51 | 0 | 4.0 | 12.0 | 0.00 | 0.00 | 0.00 | 39 | 1016.2 |
| 20260508143052 | 51 | 254 | 5.0 | 13.0 | 0.00 | 0.00 | 0.00 | 40 | 1010.1 |
| 20260508143042 | 51 | 254 | 5.0 | 13.0 | 0.00 | 0.00 | 0.00 | 37 | 1016.3 |
| 20260508141545 | 51 | 232 | 4.0 | 10.0 | 0.00 | 0.00 | 0.00 | 39 | 1010.4 |
| 20260508141539 | 50 | 235 | 3.0 | 11.0 | 0.00 | 0.00 | 0.00 | 40 | 1016.5 |
| 20260508140042 | 49 | 248 | 4.0 | 10.0 | 0.00 | 0.00 | 0.00 | 41 | 1016.6 |
| 20260508134555 | 48 | 252 | 4.0 | 9.0 | 0.00 | 0.00 | 0.00 | 43 | 1016.7 |
| 20260508134537 | 48 | 249 | 4.0 | 9.0 | 0.00 | 0.00 | 0.00 | 44 | 1010.5 |
| 20260508133057 | 47 | 256 | 5.0 | 9.0 | 0.00 | 0.00 | 0.00 | 45 | 1010.5 |
| 20260508133049 | 47 | 252 | 5.0 | 9.0 | 0.00 | 0.00 | 0.00 | 44 | 1016.8 |
| 20260508131539 | 45 | 236 | 3.0 | 9.0 | 0.00 | 0.00 | 0.00 | 47 | 1016.7 |
| 20260508131534 | 45 | 236 | 3.0 | 9.0 | 0.00 | 0.00 | 0.00 | 48 | 1010.5 |
| 20260508130042 | 44 | 270 | 0.0 | 8.0 | 0.00 | 0.00 | 0.00 | 53 | 1016.9 |
| 20260508130028 | 44 | 270 | 1.0 | 8.0 | 0.00 | 0.00 | 0.00 | 53 | 1010.6 |
| 20260508124539 | 42 | 0 | 0.0 | 3.0 | 0.00 | 0.00 | 0.00 | 56 | 1016.8 |
| 20260508124531 | 42 | 238 | 0.0 | 3.0 | 0.00 | 0.00 | 0.00 | 57 | 1010.5 |
| 20260508123047 | 39 | 0 | 0.0 | 2.0 | 0.00 | 0.00 | 0.00 | 62 | 1016.7 |
| 20260508123019 | 39 | 238 | 0.0 | 2.0 | 0.00 | 0.00 | 0.00 | 63 | 1010.5 |
| 20260508121538 | 35 | 0 | 0.0 | 1.0 | 0.00 | 0.00 | 0.00 | 72 | 1016.6 |
| 20260508121514 | 35 | 239 | 0.0 | 1.0 | 0.00 | 0.00 | 0.00 | 72 | 1010.3 |
| 20260508120043 | 32 | 0 | 0.0 | 1.0 | 0.00 | 0.00 | 0.00 | 79 | 1016.5 |
| 20260508120011 | 32 | 239 | 0.0 | 1.0 | 0.00 | 0.00 | 0.00 | 80 | 1010.2 |
| 20260508114541 | 30 | 0 | 0.0 | 1.0 | 0.00 | 0.00 | 0.00 | 82 | 1016.4 |
| 20260508114509 | 30 | 239 | 0.0 | 1.0 | 0.00 | 0.00 | 0.00 | 82 | 1010.1 |
| 20260508113040 | 30 | 0 | 0.0 | 0.0 | 0.00 | 0.00 | 0.00 | 82 | 1016.3 |
| 20260508113006 | 30 | 239 | 0.0 | 0.0 | 0.00 | 0.00 | 0.00 | 83 | 1010.2 |
| 20260508111540 | 29 | 0 | 0.0 | 0.0 | 0.00 | 0.00 | 0.00 | 82 | 1016.2 |
| 20260508111503 | 29 | 239 | 0.0 | 0.0 | 0.00 | 0.00 | 0.00 | 82 | 1010.0 |
| 20260508110039 | 29 | 0 | 0.0 | 0.0 | 0.00 | 0.00 | 0.00 | 80 | 1016.2 |
| 20260508110003 | 29 | 239 | 0.0 | 0.0 | 0.00 | 0.00 | 0.00 | 81 | 1010.0 |
| 20260508104601 | 29 | 239 | 0.0 | 0.0 | 0.00 | 0.00 | 0.00 | 80 | 1009.9 |
| 20260508104536 | 29 | 0 | 0.0 | 0.0 | 0.00 | 0.00 | 0.00 | 81 | 1016.2 |
| 20260508103100 | 29 | 239 | 0.0 | 0.0 | 0.00 | 0.00 | 0.00 | 81 | 1010.0 |
| 20260508103036 | 29 | 0 | 0.0 | 0.0 | 0.00 | 0.00 | 0.00 | 80 | 1016.3 |
| 20260508101558 | 30 | 239 | 0.0 | 0.0 | 0.00 | 0.00 | 0.00 | 79 | 1009.9 |
| 20260508101542 | 30 | 0 | 0.0 | 0.0 | 0.00 | 0.00 | 0.00 | 79 | 1016.2 |
| 20260508100058 | 30 | 239 | 0.0 | 0.0 | 0.00 | 0.00 | 0.00 | 80 | 1010.0 |
| 20260508100048 | 30 | 0 | 0.0 | 0.0 | 0.00 | 0.00 | 0.00 | 80 | 1016.3 |
| 20260508094610 | 30 | 239 | 0.0 | 0.0 | 0.00 | 0.00 | 0.00 | 80 | 1010.1 |
| 20260508094541 | 30 | 0 | 0.0 | 0.0 | 0.00 | 0.00 | 0.00 | 80 | 1016.3 |
| 20260508093055 | 30 | 239 | 0.0 | 0.0 | 0.00 | 0.00 | 0.00 | 79 | 1010.0 |
| 20260508093038 | 30 | 0 | 0.0 | 0.0 | 0.00 | 0.00 | 0.00 | 79 | 1016.4 |
| 20260508091611 | 32 | 239 | 0.0 | 0.0 | 0.00 | 0.00 | 0.00 | 73 | 1010.0 |
| 20260508091535 | 32 | 0 | 0.0 | 0.0 | 0.00 | 0.00 | 0.00 | 72 | 1016.3 |
| 20260508090106 | 38 | 0 | 1.0 | 3.0 | 0.00 | 0.00 | 0.00 | 53 | 1016.2 |
| 20260508090058 | 38 | 239 | 0.0 | 3.0 | 0.00 | 0.00 | 0.00 | 55 | 1010.0 |
| 20260508084546 | 39 | 240 | 1.0 | 3.0 | 0.00 | 0.00 | 0.00 | 52 | 1010.0 |
| 20260508084544 | 39 | 240 | 1.0 | 5.0 | 0.00 | 0.00 | 0.00 | 51 | 1016.3 |
| 20260508083045 | 40 | 241 | 2.0 | 7.0 | 0.00 | 0.00 | 0.00 | 50 | 1010.1 |
| 20260508083039 | 40 | 241 | 2.0 | 7.0 | 0.00 | 0.00 | 0.00 | 50 | 1016.3 |
| 20260508081556 | 40 | 246 | 1.0 | 4.0 | 0.00 | 0.00 | 0.00 | 50 | 1016.2 |
| 20260508081547 | 40 | 246 | 1.0 | 4.0 | 0.00 | 0.00 | 0.00 | 51 | 1010.1 |
| 20260508080044 | 39 | 249 | 0.0 | 4.0 | 0.00 | 0.00 | 0.00 | 53 | 1010.2 |
| 20260508080040 | 39 | 249 | 0.0 | 4.0 | 0.00 | 0.00 | 0.00 | 52 | 1016.4 |
| 20260508074545 | 39 | 250 | 0.0 | 4.0 | 0.00 | 0.00 | 0.00 | 53 | 1010.3 |
| 20260508074538 | 39 | 250 | 0.0 | 4.0 | 0.00 | 0.00 | 0.00 | 52 | 1016.4 |
| 20260508073102 | 39 | 0 | 0.0 | 3.0 | 0.00 | 0.00 | 0.00 | 51 | 1016.5 |
| 20260508073046 | 39 | 252 | 0.0 | 3.0 | 0.00 | 0.00 | 0.00 | 52 | 1010.2 |
| 20260508071544 | 39 | 0 | 0.0 | 3.0 | 0.00 | 0.00 | 0.00 | 52 | 1016.6 |
| 20260508071541 | 39 | 253 | 0.0 | 3.0 | 0.00 | 0.00 | 0.00 | 52 | 1010.4 |
| 20260508070046 | 39 | 254 | 1.0 | 6.0 | 0.00 | 0.00 | 0.00 | 52 | 1016.6 |
| 20260508070040 | 39 | 254 | 1.0 | 6.0 | 0.00 | 0.00 | 0.00 | 53 | 1010.4 |
| 20260508064540 | 39 | 260 | 1.0 | 4.0 | 0.00 | 0.00 | 0.00 | 53 | 1010.5 |
| 20260508063105 | 36 | 262 | 0.0 | 2.0 | 0.00 | 0.00 | 0.00 | 62 | 1010.6 |
| 20260508063039 | 36 | 0 | 0.0 | 2.0 | 0.00 | 0.00 | 0.00 | 61 | 1016.9 |
| 20260508061542 | 36 | 262 | 0.0 | 3.0 | 0.00 | 0.00 | 0.00 | 60 | 1016.9 |
| 20260508061532 | 36 | 262 | 0.0 | 2.0 | 0.00 | 0.00 | 0.00 | 60 | 1010.7 |
| 20260508060059 | 36 | 0 | 1.0 | 3.0 | 0.00 | 0.00 | 0.00 | 63 | 1017.2 |
| 20260508060030 | 36 | 263 | 1.0 | 3.0 | 0.00 | 0.00 | 0.00 | 62 | 1010.9 |
| 20260508054540 | 36 | 0 | 0.0 | 3.0 | 0.00 | 0.00 | 0.00 | 63 | 1017.2 |
| 20260508054527 | 36 | 264 | 0.0 | 3.0 | 0.00 | 0.00 | 0.00 | 64 | 1011.0 |
| 20260508053039 | 36 | 0 | 0.0 | 2.0 | 0.00 | 0.00 | 0.00 | 61 | 1017.3 |
| 20260508053034 | 36 | 264 | 0.0 | 2.0 | 0.00 | 0.00 | 0.00 | 61 | 1011.0 |
| 20260508051555 | 36 | 0 | 0.0 | 2.0 | 0.00 | 0.00 | 0.00 | 61 | 1017.3 |
| 20260508051522 | 36 | 265 | 0.0 | 2.0 | 0.00 | 0.00 | 0.00 | 62 | 1011.1 |
| 20260508050042 | 37 | 0 | 0.0 | 2.0 | 0.00 | 0.00 | 0.00 | 61 | 1017.4 |
| 20260508050019 | 37 | 265 | 0.0 | 2.0 | 0.00 | 0.00 | 0.00 | 62 | 1011.1 |
| 20260508044547 | 37 | 0 | 0.0 | 1.0 | 0.00 | 0.00 | 0.00 | 60 | 1017.4 |
| 20260508044519 | 37 | 265 | 0.0 | 1.0 | 0.00 | 0.00 | 0.00 | 60 | 1011.3 |
| 20260508043039 | 37 | 0 | 0.0 | 0.0 | 0.00 | 0.00 | 0.00 | 60 | 1017.5 |
| 20260508043019 | 37 | 265 | 0.0 | 0.0 | 0.00 | 0.00 | 0.00 | 60 | 1011.4 |
| 20260508041537 | 37 | 0 | 0.0 | 0.0 | 0.00 | 0.00 | 0.00 | 62 | 1017.6 |
| 20260508041520 | 37 | 265 | 0.0 | 0.0 | 0.00 | 0.00 | 0.00 | 63 | 1011.5 |
| 20260508040048 | 38 | 0 | 0.0 | 0.0 | 0.00 | 0.00 | 0.00 | 60 | 1017.7 |
| 20260508040018 | 38 | 265 | 0.0 | 0.0 | 0.00 | 0.00 | 0.00 | 60 | 1011.5 |
| 20260508034547 | 38 | 0 | 0.0 | 2.0 | 0.00 | 0.00 | 0.00 | 59 | 1017.8 |
| 20260508034524 | 38 | 265 | 0.0 | 2.0 | 0.00 | 0.00 | 0.00 | 59 | 1011.6 |
| 20260508033045 | 38 | 0 | 0.0 | 0.0 | 0.00 | 0.00 | 0.00 | 62 | 1017.8 |
| 20260508033024 | 38 | 265 | 0.0 | 0.0 | 0.00 | 0.00 | 0.00 | 62 | 1011.7 |
| 20260508031546 | 40 | 0 | 0.0 | 0.0 | 0.00 | 0.00 | 0.00 | 51 | 1017.7 |
| 20260508031518 | 40 | 265 | 0.0 | 0.0 | 0.00 | 0.00 | 0.00 | 52 | 1011.5 |
| 20260508030038 | 41 | 0 | 0.0 | 0.0 | 0.00 | 0.00 | 0.00 | 48 | 1017.8 |
| 20260508030019 | 41 | 265 | 0.0 | 0.0 | 0.00 | 0.00 | 0.00 | 49 | 1011.7 |
| 20260508024559 | 41 | 0 | 0.0 | 0.0 | 0.00 | 0.00 | 0.00 | 48 | 1017.8 |
| 20260508024522 | 41 | 265 | 0.0 | 0.0 | 0.00 | 0.00 | 0.00 | 49 | 1011.8 |
| 20260508023042 | 42 | 0 | 0.0 | 0.0 | 0.00 | 0.00 | 0.00 | 46 | 1017.8 |
| 20260508023016 | 42 | 265 | 0.0 | 0.0 | 0.00 | 0.00 | 0.00 | 46 | 1011.7 |
| 20260508021543 | 43 | 0 | 0.0 | 0.0 | 0.00 | 0.00 | 0.00 | 43 | 1017.7 |
| 20260508021526 | 43 | 265 | 0.0 | 0.0 | 0.00 | 0.00 | 0.00 | 43 | 1011.6 |
| 20260508020047 | 44 | 0 | 0.0 | 0.0 | 0.00 | 0.00 | 0.00 | 42 | 1017.6 |
| 20260508020014 | 44 | 265 | 0.0 | 0.0 | 0.00 | 0.00 | 0.00 | 42 | 1011.5 |
| 20260508014545 | 45 | 0 | 0.0 | 0.0 | 0.00 | 0.00 | 0.00 | 45 | 1017.5 |
| 20260508014514 | 45 | 265 | 0.0 | 0.0 | 0.00 | 0.00 | 0.00 | 45 | 1011.4 |
| 20260508013037 | 46 | 265 | 0.0 | 2.0 | 0.00 | 0.00 | 0.00 | 41 | 1017.4 |
| 20260508013013 | 46 | 265 | 0.0 | 2.0 | 0.00 | 0.00 | 0.00 | 42 | 1011.3 |
| 20260508011544 | 47 | 0 | 0.0 | 4.0 | 0.00 | 0.00 | 0.00 | 38 | 1017.3 |